This is the latest recevied weather packets stored in our database for station/object KD2DXJ. If no packets are shown the sender has not sent any weather packets the latest 10 day(s).
| Time | Temp. | Humidity | Pressure | Rain* | Wind** | Luminosity | Snow |
|---|---|---|---|---|---|---|---|
| 1777935386 | 19.44° C | 47% | 1002.8 hPa | 0 mm | - | 32 W/m² | - |
| 1777935081 | 19.44° C | 46% | 1002.6 hPa | 0 mm | - | 32 W/m² | - |
| 1777934778 | 20° C | 45% | 1002.9 hPa | 0 mm | - | 38 W/m² | - |
| 1777934475 | 20° C | 45% | 1002.7 hPa | 0 mm | - | 45 W/m² | - |
| 1777934172 | 20° C | 45% | 1002.9 hPa | 0 mm | - | 54 W/m² | - |
| 1777933868 | 20° C | 45% | 1002.8 hPa | 0 mm | - | 52 W/m² | - |
| 1777933565 | 20° C | 44% | 1003.1 hPa | 0 mm | - | 47 W/m² | - |
| 1777933262 | 20° C | 45% | 1002.9 hPa | 0 mm | - | 47 W/m² | - |
| 1777932959 | 20° C | 44% | 1003 hPa | 0 mm | - | 51 W/m² | - |
| 1777932656 | 20° C | 45% | 1002.9 hPa | 0 mm | - | 59 W/m² | - |
| 1777932352 | 20° C | 44% | 1002.9 hPa | 0 mm | - | 61 W/m² | - |
| 1777932050 | 20° C | 44% | 1003 hPa | 0 mm | - | 61 W/m² | - |
| 1777931746 | 20° C | 46% | 1003 hPa | 0 mm | - | 67 W/m² | - |
| 1777931444 | 20° C | 44% | 1003.1 hPa | 0 mm | - | 79 W/m² | - |
| 1777931139 | 20° C | 45% | 1003.1 hPa | 0 mm | - | 82 W/m² | - |
| 1777930836 | 20° C | 44% | 1003.2 hPa | 0 mm | - | 88 W/m² | - |
| 1777930532 | 20° C | 44% | 1003.1 hPa | 0 mm | - | 83 W/m² | - |
| 1777930230 | 20° C | 44% | 1003.2 hPa | 0 mm | - | 82 W/m² | - |
| 1777929925 | 20.56° C | 43% | 1003 hPa | 0 mm | - | 77 W/m² | - |
| 1777929623 | 20.56° C | 44% | 1003 hPa | 0 mm | - | 73 W/m² | - |
| 1777929320 | 20.56° C | 47% | 1003 hPa | 0 mm | - | 74 W/m² | - |
| 1777929017 | 20.56° C | 45% | 1003.1 hPa | 0 mm | - | 67 W/m² | - |
| 1777928714 | 20.56° C | 45% | 1003.3 hPa | 0 mm | - | 71 W/m² | - |
| 1777928411 | 20.56° C | 44% | 1003.1 hPa | 0 mm | - | 75 W/m² | - |
| 1777928108 | 20.56° C | 43% | 1003.3 hPa | 0 mm | - | 118 W/m² | - |
* Rain latest hour (hover to see other rain measurements)
** Current wind speed in m/s (hover to see current wind gust speed)